Prescott, AZ

6:44 PM MST on March 28, 2017 (GMT -0700)
Love

Weather History for KPRC - February, 2012

Change the Weather History Date:

Friday, February 3, 2012

  Actual Average Record
Temperature  
Mean Temperature 34 °F 40 °F  
Max Temperature 48 °F 53 °F 70 °F (1963)
Min Temperature 19 °F 27 °F 3 °F (2011)
Degree Days  
Heating Degree Days 32    
Month to date heating degree days  
Since 1 July heating degree days  
Cooling Degree Days 0    
Month to date cooling degree days  
Year to date cooling degree days  
Moisture  
Dew Point 19 °F    
Average Humidity 55    
Maximum Humidity 85    
Minimum Humidity 24    
Precipitation  
Precipitation 0.00 in 0.04 in 0.70 in (2008)
Month to date precipitation 0.12  
Year to date precipitation 1.24  
Sea Level Pressure  
Sea Level Pressure 30.04 in    
Wind  
Wind Speed 4 mph (South)    
Max Wind Speed 8 mph    
Max Gust Speed -    
Visibility 10 miles    
Events      
T = Trace of Precipitation, MM = Missing Value Source: NWS Daily Summary

Daily Weather History Graph

Daily Weather History Graph

Search for Another Location

Airport or City:

Trip Planner

Search our weather history database for the weather conditions in past years. The results will help you decide how hot, cold, wet, or windy it might be!

Date:

Astronomy

Feb. 03, 2012 Rise Set
Actual Time 7:26 AM MST 6:00 PM MST
Civil Twilight 7:00 AM MST 6:27 PM MST
Nautical Twilight 6:30 AM MST 6:57 PM MST
Astronomical Twilight 6:00 AM MST 7:26 PM MST
Moon 2:10 PM MST (2/3) 4:00 AM MST (2/3)
Length of Visible Light 11h 26m
Length of Day
10h 34m
Waxing Gibbous, 82% of the Moon is Illuminated
Feb 3
Waxing Gibbous
Feb 7
Full
Feb 14
Last Quarter
Feb 21
New
Feb 29
First Quarter

Hourly Weather History & Observations

Time (MST) Temp. Windchill Dew Point Humidity Pressure Visibility Wind Dir Wind Speed Gust Speed Precip Events Conditions
12:53 AM 30.0 °F 24.1 °F 19.9 °F 66% 29.96 in 10.0 mi WSW 5.8 mph - N/A   Clear
1:53 AM 27.0 °F 23.0 °F 19.0 °F 72% 29.98 in 10.0 mi SSW 3.5 mph - N/A   Clear
2:53 AM 28.0 °F 22.8 °F 18.0 °F 66% 29.99 in 10.0 mi WNW 4.6 mph - N/A   Clear
3:53 AM 26.1 °F 21.9 °F 18.0 °F 71% 30.01 in 10.0 mi South 3.5 mph - N/A   Clear
4:53 AM 21.9 °F 15.7 °F 16.0 °F 78% 30.02 in 10.0 mi SW 4.6 mph - N/A   Clear
5:53 AM 21.9 °F 14.5 °F 17.1 °F 82% 30.03 in 10.0 mi South 5.8 mph - N/A   Clear
6:53 AM 19.9 °F 14.9 °F 16.0 °F 85% 30.06 in 10.0 mi SSW 3.5 mph - N/A   Clear
7:53 AM 23.0 °F 13.9 °F 18.0 °F 81% 30.08 in 10.0 mi SSW 8.1 mph - N/A   Clear
8:53 AM 28.9 °F - 21.0 °F 72% 30.09 in 10.0 mi Calm Calm - N/A   Clear
9:53 AM 36.0 °F - 23.0 °F 59% 30.07 in 10.0 mi Calm Calm - N/A   Clear
10:53 AM 39.9 °F 37.8 °F 24.1 °F 53% 30.07 in 10.0 mi North 3.5 mph - N/A   Clear
11:53 AM 44.1 °F 42.5 °F 24.1 °F 45% 30.04 in 10.0 mi Variable 3.5 mph - N/A   Clear
12:53 PM 46.9 °F - 21.9 °F 37% 30.01 in 10.0 mi NE 4.6 mph - N/A   Clear
1:53 PM 48.9 °F - 19.9 °F 32% 30.01 in 10.0 mi Variable 3.5 mph - N/A   Clear
2:53 PM 48.9 °F - 16.0 °F 27% 30.00 in 10.0 mi Variable 3.5 mph - N/A   Scattered Clouds
3:53 PM 48.0 °F - 12.9 °F 24% 30.01 in 10.0 mi Calm Calm - N/A   Scattered Clouds
4:53 PM 48.9 °F - 19.0 °F 31% 30.02 in 10.0 mi East 5.8 mph - N/A   Scattered Clouds
5:53 PM 46.0 °F - 18.0 °F 33% 30.05 in 10.0 mi Calm Calm - N/A   Scattered Clouds
6:53 PM 41.0 °F 39.0 °F 19.0 °F 41% 30.09 in 10.0 mi East 3.5 mph - N/A   Scattered Clouds
7:53 PM 39.9 °F - 21.0 °F 47% 30.09 in 10.0 mi Calm Calm - N/A   Mostly Cloudy
8:53 PM 39.0 °F 36.8 °F 19.9 °F 46% 30.09 in 10.0 mi SE 3.5 mph - N/A   Scattered Clouds
9:53 PM 36.0 °F 33.3 °F 19.9 °F 52% 30.08 in 10.0 mi South 3.5 mph - N/A   Clear
10:53 PM 28.9 °F 23.9 °F 18.0 °F 64% 30.10 in 10.0 mi SSW 4.6 mph - N/A   Clear
11:53 PM 28.0 °F - 17.1 °F 63% 30.09 in 10.0 mi Calm Calm - N/A   Clear